Regional Weather Roundup
Issued by NWS Upton, NY

Home | Current Version | Previous Version | Text Only | Print | Product List | Glossary On
Versions: 1 2 3 4 5 6 7 8 9 10 11 12 13 14 15 16 17 18 19 20 21 22 23 24 25 26 27 28 29 30 31 32 33 34 35 36 37 38 39 40 41 42 43 44 45 46 47 48 49 50
000
ASUS41 KOKX 281608
RWROKX

REGIONAL WEATHER ROUNDUP
NATIONAL WEATHER SERVICE NEW YORK NY
1200 PM EDT TUE APR 28 2015

NOTE: "FAIR" INDICATES FEW OR NO CLOUDS BELOW 12,000 FEET WITH NO
SIGNIFICANT WEATHER AND/OR OBSTRUCTIONS TO VISIBILITY.

NYZ071-072-176-178-NJZ106-104-281700-
NEW YORK CITY METRO AREA


CITY           SKY/WX    TMP DP  RH WIND       PRES   REMARKS
CENTRAL PARK   MOSUNNY   65  35  33 NE12G18   29.82S
LAGUARDIA APRT MOSUNNY   60  34  37 N13G22    29.80S
KENNEDY INTL   MOSUNNY   63  32  31 N16G26    29.80F
NEWARK/LIBERTY MOSUNNY   63  33  32 N7G18     29.80F
BRNX BOT. GARD   N/A     61  34  36 NE7       29.83R
TETERBORO      MOSUNNY   63  33  32 N14G21    29.79S
$$

NYZ177-179-078>081-281700-
LONG ISLAND NEW YORK

CITY           SKY/WX    TMP DP  RH WIND       PRES   REMARKS
FARMINGDALE    MOSUNNY   60  36  40 N15G21    29.79S
ISLIP          MOSUNNY   58  36  43 N9        29.78R
SHIRLEY        PTSUNNY   57  35  43 VRB3      29.80S
WESTHAMPTON    PTSUNNY   58  35  42 N7        29.80S
MONTAUK POINT    N/A     53  37  54 NW5       29.78F
$$

NYZ052-065-067-281700-
HUDSON VALLEY

CITY           SKY/WX    TMP DP  RH WIND       PRES   REMARKS
WHITE PLAINS   MOSUNNY   61  35  37 N18G26    29.78S
NEWBURGH       NOT AVBL
MONTGOMERY     SUNNY     64  36  35 N12G20    29.79S
POUGHKEEPSIE   MOSUNNY   61  36  39 N16G25    29.80F
ALBANY         MOSUNNY   59  34  39 N12G20    29.84F
$$

NJZ001-105-106-008-010-013-015-019>022-104-281700-
NEW JERSEY

CITY           SKY/WX    TMP DP  RH WIND       PRES   REMARKS
NEWARK/LIBERTY MOSUNNY   63  33  32 N7G18     29.80F
TETERBORO      MOSUNNY   63  33  32 N14G21    29.79S
CALDWELL       MOSUNNY   63  32  31 NW14G20   29.80F
MORRISTOWN     PTSUNNY   66  36  32 SW9G22    29.81S
SOMERVILLE     PTSUNNY   63  34  33 N8G20     29.80F
SUSSEX         MOSUNNY   62  33  33 N12G24    29.81F
ANDOVER          N/A     62  33  33 N8G20     29.81F
TRENTON        MOSUNNY   62  37  39 N13G23    29.82F
MILLVILLE      MOSUNNY   62  38  40 N17G23    29.83F
ATLANTIC CITY  PTSUNNY   62  36  37 N16G24    29.82S
WRIGHTSTOWN    MOSUNNY   61  37  41 NW15      29.80F
TOMS RIVER     PTSUNNY   61  34  36 N14       29.82F
BELMAR         PTSUNNY   61  34  36 NW14G22   29.82S
$$

PAZ047>061-062-071-281700-
EASTERN PENNSYLVANIA

CITY           SKY/WX    TMP DP  RH WIND       PRES   REMARKS
PHILADELPHIA   MOSUNNY   64  38  38 NW18G32   29.85F
ALLENTOWN      MOSUNNY   64  39  39 NW14G22   29.84F
SCRANTON       CLOUDY    59  39  47 N18       29.87F
$$

CTZ002-004>006-009-010-012-RIZ004-006-007-MAZ004-011-015-281700-
SOUTHERN NEW ENGLAND
 IN CT

CITY           SKY/WX    TMP DP  RH WIND       PRES   REMARKS
BRADLEY INTL   MOSUNNY   59  32  36 N9G22     29.75F
HARTFORD       MOSUNNY   58  35  42 VRB6G18   29.76F
DANBURY        MOSUNNY   57  34  41 N14G22    29.80S
WTRBRY/OXFORD  PTSUNNY   55  36  47 N10G17    29.78F
BRIDGEPORT     MOSUNNY   62  36  37 N13       29.77F
MERIDEN        PTSUNNY   58  33  39 NW10G16   29.77S
NEW HAVEN      MOSUNNY   60  35  39 MISG      29.77S
CHESTER        PTSUNNY   55  32  41 N8        29.77S
GROTON         PTSUNNY   57  35  43 N14G20    29.75F
WILLIMANTIC    PTSUNNY   56  33  42 N15G21    29.75F

 IN RI

CITY           SKY/WX    TMP DP  RH WIND       PRES   REMARKS
PROVIDENCE     PTSUNNY   53  33  46 N18       29.75F
BLOCK ISLAND   CLOUDY    48  36  61 NE9       29.77S
WESTERLY       PTSUNNY   55  36  48 N14G22    29.76F

 IN MA

CITY           SKY/WX    TMP DP  RH WIND       PRES   REMARKS
BOSTON         MOSUNNY   50  36  58 E12       29.75F
WORCESTER      MOSUNNY   54  32  43 N13G21    29.73F
WESTFIELD      MOSUNNY   60  30  32 N9G22     29.75F
PROVINCETOWN   SUNNY    N/A N/A N/A N15       29.74F
NANTUCKET      CLOUDY    46  35  65 N21G29    29.71F
$$

ANZ330-335-338-340-345-350-353-355-281700-
COASTAL MARINE OBSERVATIONS


STATION/POSITION TIME  SKY/WX   TEMP    WIND        PRES    VSBY  WAVE
                                AIR SEA DIR/SP/G                  HT/PER
                 (UTC)          (F)     (DEG/KT/KT) (MB)    (MI)  (FT/S)
NY HARB ENTRANCE 1550            51 48  310/  4/  4 1009.1          1/ 3
4S FIRE IS       1503               45                N/A           1/10
20S FIRE ISLAND  1550            45 45  160/  8/ 10 1009.5          2/ 3
23SW MTP         1550            46 44   CALM  /  2 1008.6          2/ 4
HUDSON CANYON    NOT AVBL
EXECUTION ROCKS  NOT AVBL
WESTERN LI SOUND NOT AVBL
CENTRAL LI SOUND NOT AVBL
EASTERN LI SOUND 1500            49     350/ 14/ 17   N/A
ROBBINS REEF     1500            57     340/ 13/ 17 1008.1
$$


>>>>>>>>>>>>>>>>>>>>>>>>>>>> KEY <<<<<<<<<<<<<<<<<<<<<<<<<<<
>                                                          <
>     SKY/WX - SKY CONDITION/PRESENT WEATHER               <
>     TMP    - TEMPERATURE IN FAHRENHEIT                   <
>     DP     - DEWPOINT IN FAHRENHEIT                      <
>     RH     - RELATIVE HUMIDITY IN PERCENT                <
>     WIND   - DIRECTION AND SPEED IN MPH                  <
>     PRES   - MEAN SEA LEVEL PRESSURE IN INCHES OF HG     <
>     WCI    - WIND CHILL INDEX                            <
>     VSB    - VISIBILITY IN MILES                         <
>     HX     - HEAT INDEX                                  <
>     TC     - TEMPERATURE IN CELSIUS                      <
>     VRB    - VARIABLE WIND DIRECTION                     <
>                                                          <
>>>>>>>>>>>>>>>>>>>>>>>>>>>> KEY <<<<<<<<<<<<<<<<<<<<<<<<<<<




USA.gov is the U.S. government's official web portal to all federal, state and local government web resources and services.